Date String (YYYY-MM-DD hh:mm:ss) UTC,Instrument flags,Ambient pressure (hPa),Sample flow (lpm),Bypass flow (lpm),Sample temperature (°C),Ambient temperature (°C),ASC tube jacket temperature (°C),LED temperature (°C),Box temperature (°C),Sample RH (%),Span deviation,Mass concentration (μg/m³),Mass concentration (μg/m³),Mass concentration (μg/m³)
DateTimeUTC,F1_M11,P_M11,Q1_M11,Q2_M11,T1_M11,T2_M11,T3_M11,T4_M11,T5_M11,U1_M11,ZSPAN_M11,X0_M11,X2_M11,X1_M11
2022-10-06 06:00:00,,0834.9,5.00,0.00,29.8,28.3,00.0,38.5,31.6,18.6,0000.0,0008.53,0004.91,0004.52
2022-10-06 06:01:00,,0834.9,4.99,0.00,29.8,28.3,00.0,38.5,31.6,18.6,0000.0,0008.50,0004.90,0004.54
2022-10-06 06:02:00,,0834.9,5.02,0.00,29.8,28.3,00.0,38.5,31.6,18.6,0000.0,0008.59,0004.91,0004.55
2022-10-06 06:03:00,,0834.8,5.01,0.00,29.8,28.3,00.0,38.5,31.6,18.6,0000.0,0008.59,0004.89,0004.56
2022-10-06 06:04:00,,0834.8,5.00,0.00,29.8,28.3,00.0,38.5,31.6,18.5,0000.0,0008.60,0004.90,0004.57
2022-10-06 06:05:00,,0834.8,5.00,0.00,29.8,28.3,00.0,38.5,31.6,18.5,0000.0,0008.49,0004.92,0004.58
2022-10-06 06:06:00,,0834.8,4.99,0.00,29.8,28.3,00.0,38.5,31.6,18.5,0000.0,0008.49,0004.93,0004.58
2022-10-06 06:07:00,,0834.9,5.01,0.00,29.8,28.3,00.0,38.5,31.6,18.4,0000.0,0008.40,0004.91,0004.58
2022-10-06 06:08:00,,0834.8,5.01,0.00,29.8,28.2,00.0,38.5,31.5,18.4,0000.0,0008.46,0004.92,0004.57
2022-10-06 06:09:00,,0834.7,4.98,0.00,29.8,28.2,00.0,38.5,31.5,18.3,0000.0,0008.71,0004.90,0004.56
2022-10-06 06:10:00,,0834.7,5.01,0.00,29.8,28.2,00.0,38.5,31.5,18.2,0000.0,0008.86,0004.89,0004.54
2022-10-06 06:11:00,,0834.7,4.99,0.00,29.7,28.1,00.0,38.5,31.5,18.2,0000.0,0008.80,0004.86,0004.53
2022-10-06 06:12:00,,0834.7,5.01,0.00,29.7,28.1,00.0,38.5,31.4,18.2,0000.0,0008.98,0004.85,0004.53
2022-10-06 06:13:00,,0834.7,5.00,0.00,29.7,28.1,00.0,38.5,31.5,18.2,0000.0,0008.86,0004.84,0004.53
2022-10-06 06:14:00,,0834.7,5.00,0.00,29.7,28.1,00.0,38.5,31.5,18.1,0000.0,0009.17,0004.83,0004.55
2022-10-06 06:15:00,,0834.7,5.00,0.00,29.7,28.1,00.0,38.5,31.4,18.0,0000.0,0009.34,0004.86,0004.58
2022-10-06 06:16:00,,0834.7,5.00,0.00,29.7,28.0,00.0,38.5,31.4,18.1,0000.0,0009.38,0004.86,0004.59
2022-10-06 06:17:00,,0834.7,5.00,0.00,29.7,28.0,00.0,38.5,31.4,18.1,0000.0,0010.23,0004.86,0004.60
2022-10-06 06:18:00,,0834.7,5.00,0.00,29.7,28.0,00.0,38.5,31.4,18.2,0000.0,0010.39,0004.86,0004.60
2022-10-06 06:19:00,,0834.7,4.99,0.00,29.7,28.0,00.0,38.5,31.4,18.1,0000.0,0010.41,0004.88,0004.62
2022-10-06 06:20:00,,0834.7,5.00,0.00,29.7,28.0,00.0,38.5,31.3,18.3,0000.0,0010.23,0004.90,0004.63
2022-10-06 06:21:00,,0834.7,5.00,0.00,29.7,28.0,00.0,38.5,31.4,18.5,0000.0,0010.10,0004.92,0004.63
2022-10-06 06:22:00,,0834.7,4.99,0.00,29.6,28.0,00.0,38.5,31.4,18.6,0000.0,0009.86,0004.91,0004.62
2022-10-06 06:23:00,,0834.7,5.01,0.00,29.6,28.0,00.0,38.5,31.4,18.5,0000.0,0009.55,0004.89,0004.61
2022-10-06 06:24:00,,0834.7,5.00,0.00,29.6,28.0,00.0,38.5,31.4,18.5,0000.0,0009.52,0004.87,0004.60
2022-10-06 06:25:00,,0834.7,4.99,0.00,29.6,28.0,00.0,38.5,31.3,18.5,0000.0,0009.51,0004.86,0004.58
2022-10-06 06:26:00,,0834.7,5.01,0.00,29.6,28.0,00.0,38.5,31.3,18.5,0000.0,0009.21,0004.82,0004.55
2022-10-06 06:27:00,,0834.7,5.00,0.00,29.6,27.9,00.0,38.5,31.3,18.5,0000.0,0009.18,0004.79,0004.54
2022-10-06 06:28:00,,0834.7,5.00,0.00,29.6,27.9,00.0,38.5,31.3,18.4,0000.0,0008.41,0004.80,0004.53
2022-10-06 06:29:00,,0834.7,5.01,0.00,29.6,27.9,00.0,38.4,31.3,18.3,0000.0,0008.90,0004.81,0004.55
2022-10-06 06:30:00,,0834.7,4.99,0.00,29.6,27.9,00.0,38.4,31.3,18.4,0000.0,0008.81,0004.79,0004.54
2022-10-06 06:31:00,,0834.7,5.01,0.00,29.6,27.9,00.0,38.4,31.3,18.3,0000.0,0008.85,0004.79,0004.54
2022-10-06 06:32:00,,0834.7,5.01,0.00,29.6,27.9,00.0,38.4,31.3,18.3,0000.0,0008.82,0004.80,0004.56
2022-10-06 06:33:00,,0834.7,4.99,0.00,29.6,27.9,00.0,38.4,31.3,18.3,0000.0,0008.78,0004.83,0004.59
2022-10-06 06:34:00,,0834.6,5.01,0.00,29.5,27.8,00.0,38.4,31.3,18.3,0000.0,0008.81,0004.87,0004.61
2022-10-06 06:35:00,,0834.7,5.01,0.00,29.5,27.8,00.0,38.4,31.3,18.3,0000.0,0009.33,0004.93,0004.63
2022-10-06 06:36:00,,0834.7,4.99,0.00,29.5,27.8,00.0,38.4,31.3,18.2,0000.0,0009.32,0004.96,0004.66
2022-10-06 06:37:00,,0834.7,5.01,0.00,29.5,27.8,00.0,38.4,31.3,18.1,0000.0,0009.38,0005.00,0004.69
2022-10-06 06:38:00,,0834.7,5.00,0.00,29.5,27.9,00.0,38.4,31.3,18.1,0000.0,0009.55,0005.06,0004.73
2022-10-06 06:39:00,,0834.7,4.99,0.00,29.5,27.9,00.0,38.4,31.3,18.0,0000.0,0009.62,0005.10,0004.76
2022-10-06 06:40:00,,0834.7,5.01,0.00,29.5,27.8,00.0,38.3,31.3,18.1,0000.0,0009.05,0005.13,0004.79
2022-10-06 06:41:00,,0834.7,4.99,0.00,29.5,27.8,00.0,38.4,31.2,18.2,0000.0,0008.95,0005.19,0004.81
2022-10-06 06:42:00,,0834.7,5.01,0.00,29.5,27.8,00.0,38.3,31.2,18.2,0000.0,0009.03,0005.26,0004.84
2022-10-06 06:43:00,,0834.7,5.00,0.00,29.5,27.8,00.0,38.3,31.2,18.2,0000.0,0009.08,0005.27,0004.86
2022-10-06 06:44:00,,0834.7,4.99,0.00,29.5,27.8,00.0,38.3,31.2,18.2,0000.0,0009.07,0005.29,0004.89
2022-10-06 06:45:00,,0834.7,5.01,0.00,29.5,27.8,00.0,38.3,31.2,18.2,0000.0,0009.20,0005.30,0004.92
2022-10-06 06:46:00,,0834.6,4.99,0.00,29.5,27.8,00.0,38.3,31.2,18.2,0000.0,0008.95,0005.33,0004.94
2022-10-06 06:47:00,,0834.7,5.01,0.00,29.5,27.8,00.0,38.3,31.2,18.0,0000.0,0008.81,0005.39,0004.97
2022-10-06 06:48:00,,0834.7,5.00,0.00,29.5,27.8,00.0,38.3,31.2,18.0,0000.0,0008.86,0005.44,0004.98
2022-10-06 06:49:00,,0834.7,4.98,0.00,29.5,27.8,00.0,38.3,31.2,18.0,0000.0,0008.81,0005.46,0004.99
2022-10-06 06:50:00,,0834.7,5.01,0.00,29.5,27.8,00.0,38.3,31.2,18.0,0000.0,0008.78,0005.46,0005.00
2022-10-06 06:51:00,,0834.7,5.00,0.00,29.4,27.8,00.0,38.3,31.2,18.0,0000.0,0008.81,0005.46,0005.00
2022-10-06 06:52:00,,0834.6,5.01,0.00,29.4,27.7,00.0,38.3,31.1,18.1,0000.0,0008.91,0005.45,0005.00
2022-10-06 06:53:00,,0834.7,5.01,0.00,29.4,27.7,00.0,38.3,31.1,18.0,0000.0,0008.81,0005.43,0005.01
2022-10-06 06:54:00,,0834.7,4.99,0.00,29.4,27.7,00.0,38.3,31.2,18.0,0000.0,0008.79,0005.44,0005.03
2022-10-06 06:55:00,,0834.7,5.02,0.00,29.4,27.7,00.0,38.2,31.2,18.0,0000.0,0008.84,0005.46,0005.04
2022-10-06 06:56:00,,0834.7,4.99,0.00,29.4,27.7,00.0,38.2,31.1,18.0,0000.0,0009.08,0005.45,0005.04
2022-10-06 06:57:00,,0834.6,5.01,0.00,29.4,27.7,00.0,38.2,31.1,18.0,0000.0,0009.48,0005.44,0005.05
2022-10-06 06:58:00,,0834.6,4.99,0.00,29.4,27.7,00.0,38.2,31.2,18.1,0000.0,0009.36,0005.39,0005.05
2022-10-06 06:59:00,,0834.6,5.01,0.00,29.4,27.7,00.0,38.2,31.1,18.1,0000.0,0009.58,0005.38,0005.06
